Location: Arena
(42.5007°N, 9.4650°E)
Time: 15:56:26
(UTC+00:00)

CZ-4C R/B - Pass Details

Date: 09 April 2020
Orbit: 637 x 1365 km, 63.4° (Epoch: 28 May)

Event Time Altitude Azimuth Distance (km) Brightness Sun altitude
Rises 22:39:42 0° 319° (NW) 3,926 6.4 -38.5°
Reaches altitude 10° 22:42:20 10° 314° (NW) 3,061 5.6 -38.6°
Enters shadow 22:47:00 38° 288° (WNW) 1,807 3.9 -38.8°
